Skip Page Navigation
NASA JPL Caltech
NASA Logo - Jet Propulsion Laboratory + View the NASA Portal
+ Near-Earth Object (NEO) Program
Search JPL
JPL Home Earth Solar System Stars & Galaxies Technology
JPL Solar System Dynamics
BODIES ORBITS EPHEMERIDES TOOLS PHYSICAL DATA DISCOVERY FAQ SITE MAP
JPL Small-Body Database Browser
Search: [ help ]  
(2004 QX2)
Classification: Apollo [NEO, PHA]          SPK-ID: 3249983
Ephemeris | Orbit Diagram | Orbital Elements | Physical Parameters | Close-Approach Data ]

[ hide orbit diagram ]
Orbit Diagram
Note: Make sure you have Java enabled on your browser to see the applet. This applet is provided as a 3D orbit visualization tool. The applet was implemented using 2-body methods, and hence should not be used for determining accurate long-term trajectories (over several years or decades) or planetary encounter circumstances. For accurate long-term ephemerides, please instead use our Horizons system.
Orbit Viewer

Additional Notes: the orbits shown in the applet are color coded. The planets are white lines, and the asteroid/comet is a blue line. The bright white line indicates the portion of the orbit that is above the ecliptic plane, and the darker portion is below the ecliptic plane. Likewise for the asteroid/comet orbit, the light blue indicates the portion above the ecliptic plane, and the dark blue the portion below the ecliptic plane.

Orbit Viewer applet originally written and kindly provided by Osamu Ajiki (AstroArts), and further modified by Ron Baalke (JPL).


Orbital Elements at Epoch 2453244.5 (2004-Aug-27.0) TDB
Reference: JPL 7 (heliocentric ecliptic J2000)
 Element Value Uncertainty (1-sigma)   Units 
e .9026202306103013 0.00039168  
a 1.285919563871201 0.0018921 AU
q .1252225505834795 0.00031945 AU
i 19.06717989048429 0.036802 deg
node 320.3718136228708 0.016414 deg
peri 218.6209328568272 0.032584 deg
M 38.49367251208008 0.10353 deg
tp 2453187.548393552460
(2004-Jul-01.04839355)
0.02748 JED
period 532.6220384578863
1.46
1.1756
0.003219
d
yr
n .6759014348004014 0.0014918 deg/d
Q 2.446616577158922 0.0036 AU
  Orbit Determination Parameters
   # obs. used (total)      24  
   data-arc span      17 days  
   first obs. used      2004-08-20  
   last obs. used      2004-09-06  
   planetary ephem.      DE405  
   SB-pert. ephem.      SB405-CPV-2  
   condition code      8  
   fit RMS      .8397  
   data source      ORB  
   producer      Otto Matic  
   solution date      2011-Sep-14 19:57:09  

Additional Information
 Earth MOID = .0369244 AU 
 T_jup = 4.451 
[ show covariance matrix ]

Ephemeris | Orbit Diagram | Orbital Elements | Physical Parameters | Close-Approach Data ]

Physical Parameter Table
Parameter Symbol Value Units Sigma Reference Notes
absolute magnitude H 21.511 mag .59402 7 autocmod 2.5a

[ show close-approach data ]
Ephemeris | Orbit Diagram | Orbital Elements | Physical Parameters | Close-Approach Data ]
ABOUT SSD CREDITS/AWARDS PRIVACY/COPYRIGHT GLOSSARY LINKS
FirstGov 2013-May-24 03:28 UT
(server date/time)  
NASA Home Page
Site Manager:   Donald K. Yeomans
Webmaster  Alan B. Chamberlin